Location: Oberwangen
(47.4286°N, 8.9679°E)
Time: 07:37:03
(UTC+00:00)

LEMUR 2 WINGO - Visible Passes

Search period start: 29 January 2022 00:00
Search period end: 08 February 2022 00:00
Orbit: 465 x 481 km, 51.7° (Epoch: 28 January)

Date Brightness Start Highest point End Pass type
(mag) Time Alt. Az. Time Alt. Az. Time Alt. Az.
29 Jan ? 17:52:32 10° WNW 17:56:02 42° N 17:57:08 32° NE visible
29 Jan ? 19:30:39 10° WNW 19:31:12 14° WNW 19:31:12 14° WNW visible
30 Jan ? 17:22:13 10° WNW 17:25:43 41° N 17:28:11 17° ENE visible
30 Jan ? 19:00:22 10° WNW 19:02:15 29° WNW 19:02:15 29° WNW visible
31 Jan ? 16:51:53 10° WNW 16:55:23 41° N 16:58:52 10° ENE visible
31 Jan ? 18:30:03 10° WNW 18:33:19 64° NNW 18:33:19 64° NNW visible
01 Feb ? 17:59:43 10° WNW 18:03:22 66° NNE 18:04:26 41° E visible
01 Feb ? 19:37:55 10° W 19:38:31 14° W 19:38:31 14° W visible
02 Feb ? 17:29:23 10° WNW 17:33:01 61° NNE 17:35:38 18° E visible
02 Feb ? 19:07:31 10° WNW 19:09:42 27° WSW 19:09:42 27° WSW visible
03 Feb ? 16:59:00 10° WNW 17:02:37 57° NNE 17:06:14 10° E visible
03 Feb ? 18:37:07 10° WNW 18:40:33 39° SW 18:40:59 38° SSW visible
04 Feb ? 18:06:42 10° WNW 18:10:12 45° SW 18:12:25 20° SSE visible
05 Feb ? 17:36:17 10° WNW 17:39:50 50° SSW 17:43:23 10° SE visible
06 Feb ? 17:05:50 10° WNW 17:09:26 57° SSW 17:13:01 10° SE visible
06 Feb ? 18:45:43 10° WSW 18:46:46 11° SW 18:47:50 10° SSW visible
07 Feb ? 18:14:44 10° WSW 18:16:25 13° SW 18:18:06 10° SSW visible
